Location: Heiligenberg
(48.5381°N, 7.3897°E)
Time: 22:20:02
(UTC+00:00)

Cosmos 2297 - Pass Details

Date: 26 May 2022
Orbit: 834 x 859 km, 71.0° (Epoch: 04 July)

Event Time Altitude Azimuth Distance (km) Brightness Sun altitude
Rises 01:25:14 0° 331° (NNW) 3,446 7.4 -15.6°
Reaches altitude 10° 01:27:42 10° 331° (NNW) 2,506 6.6 -15.4°
Maximum altitude 01:33:29 88° 245° (WSW) 867 3.7 -14.9°
Drops below altitude 10° 01:39:13 10° 155° (SSE) 2,486 5.8 -14.4°
Sets 01:41:40 0° 155° (SSE) 3,416 6.5 -14.2°
